Location: *
(43.4667°N, 11.6833°E)
Time: 17:42:30
(UTC+00:00)

YAOGAN 11 - Pass Details

Date: 19 July 2019
Orbit: 615 x 666 km, 98.3° (Epoch: 24 August)

Event Time Altitude Azimuth Distance (km) Brightness Sun altitude
Exits shadow 22:47:01 55° 283° (WNW) 746 4.5 -25.3°
Drops below altitude 10° 22:50:54 10° 339° (NNW) 1,994 7.6 -25.4°
Sets 22:53:08 0° 343° (NNW) 2,910 8.8 -25.5°
